World > North America > United States > Ohio > Dorset  

Dorset, OH Hourly Weather Updates

Feedback E-mail the Weather

Quick Clicks

Dorset, OH Weather Maps

°F °C°F °C
Dorset Weather Map
UTC Time: 6/22/2024, 15:36
Your Time:

Dorset, OH Regional Weather

Expires:202406221600;;470623
ASUS41 KCLE 221512
RWRCLE
OHIO REGIONAL WEATHER ROUNDUP
NATIONAL WEATHER SERVICE WILMINGTON, OH
1100 AM EDT SAT JUN 22 2024

NOTE: "FAIR" INDICATES FEW OR NO CLOUDS BELOW 12,000 FEET WITH NO
SIGNIFICANT WEATHER AND/OR OBSTRUCTIONS TO VISIBILITY.


OHZ009>014-019>023-028>033-038-089-221600-
   NORTHEAST OHIO
  
CITY           SKY/WX    TMP DP  RH WIND       PRES   REMARKS
CLE-HOPKINS    FAIR      88  70  55 SW8       30.03F HX  93           
CLE-LAKEFRONT  FAIR      86  74  67 W5        30.02F HX  94           
CUY CO. ARPT   SUNNY     90  70  51 NW10      30.05F HX  95           
LORAIN-ELYRIA  FAIR      89  67  47 W10G17    30.04F HX  92           
ASHTABULA      FAIR      87  71  58 VRB3      30.04F HX  93           
AKRON-CANTON   FAIR      89  67  47 W10       30.07F HX  92           
WOOSTER        FAIR      89  68  49 W8        30.07F HX  93           
MANSFIELD      FAIR      88  66  48 SW8       30.08F HX  90           
YOUNGSTOWN     FAIR      86  71  60 SW7       30.07S HX  91           
$$
 

SKY/WX - Weather  TMP - Temperature  DP - Dew Point  RH - Humidity
WIND - Wind Direction/Speed PRES - Barometric Pressure VSB - Visibility
WCI - Wind Chill Index E13G22 Wind - East Wind 13 mph/Gusts of 22 mph

Trending Headlines

Trending Entertainment Headlines

Dorset Radar Loop

Use the map search tool if you want to place a location marker on the radar map...

Dorset Quick Facts

National Two Day Weather Forecast


E-mail the Dorset Weather Forecast

Voice your opinion or tell us about page issues...